Flag for U.S.A. Weather past 2 weeks in Charlotte, North Carolina, U.S.A.

Now
27 °F

Clear.


Feels Like: 22 °F
Forecast: 26 / 47 °F
Wind: 5 mph from North

Location: Charlotte / Douglas International Airport

Current Time: Jan 28, 2015 at 4:13:37 AM

Latest Report: Jan 28, 2015 at 3:52 AM


Visibility: 10 mi

Pressure: 30.10 "Hg

Humidity: 55%

Dew point: 13 °F

Location of CharlotteLocation

Historic Weather in Charlotte — Graph

°F

Charlotte temperature yesterday

Maximum temperature yesterday: 47 °F (at 1:52 PM)
Minimum temperature yesterday: 29 °F (at 6:52 AM)
Average temperature yesterday: 37 °F

Past Weeks' High & Low Weather Summary

 TemperatureHumidityPressure
High67 °F (Jan 20, 2:52 PM)96% (Jan 16, 6:52 AM)30.38 "Hg (Jan 16, 6:52 AM)
Low26 °F (Jan 17, 4:52 AM)19% (Jan 19, 1:52 PM)29.59 "Hg (Jan 24, 4:52 AM)
Average43 °F61%30.04 "Hg
* Reported Jan 13 2:52 AM — Jan 28 2:52 AM, Charlotte, Weather by CustomWeather, © 2014

Note: Actual official high and low records may vary slightly from our data, if they occured in-between our weather recording intervals... More about our weather records

Advertising

Charlotte weather history for previous 24 hours

 ConditionsComfort  
Time TempWeatherWind HumidityBarometerVisibility
2:52 AM
Jan 28
29 °FClear.3 mph51%30.08 "Hg10 mi
1:52 AM29 °FClear.5 mph56%30.06 "Hg10 mi
12:52 AM31 °FClear.5 mph52%30.05 "Hg10 mi
11:52 PM
Jan 27
31 °FClear.6 mph59%30.04 "Hg10 mi
10:52 PM31 °FClear.6 mph64%30.03 "Hg10 mi
9:52 PM33 °FClear.5 mph56%30.01 "Hg10 mi
8:52 PM35 °FPassing clouds.5 mph50%30.00 "Hg10 mi
7:52 PM37 °FPassing clouds.13 mph48%29.98 "Hg10 mi
6:52 PM39 °FPassing clouds.14 mph43%29.95 "Hg10 mi
5:52 PM41 °FPassing clouds.12 mph41%29.92 "Hg10 mi
4:52 PM46 °FPassing clouds.9 mph33%29.88 "Hg10 mi
3:52 PM47 °FPassing clouds.7 mph29%29.86 "Hg10 mi
2:52 PM47 °FSunny.12 mph28%29.84 "Hg10 mi
1:52 PM47 °FSunny.9 mph29%29.84 "Hg10 mi
12:52 PM44 °FPassing clouds.9 mph32%29.85 "Hg10 mi
11:52 AM42 °FOvercast.15 mph32%29.87 "Hg10 mi
10:52 AM38 °FOvercast.9 mph45%29.88 "Hg10 mi
9:52 AM36 °FOvercast.8 mph48%29.86 "Hg10 mi
8:52 AM33 °FOvercast.6 mph56%29.85 "Hg10 mi
7:52 AM31 °FPartly sunny.5 mph61%29.84 "Hg10 mi
6:52 AM29 °FPassing clouds.5 mph64%29.82 "Hg10 mi
5:52 AM30 °FClear.5 mph61%29.80 "Hg10 mi
4:52 AM31 °FClear.7 mph59%29.78 "Hg10 mi
Weather by CustomWeather, © 2014

See weather overviewHow to use our weather pages